Location: Auckland
(36.8670°S, 174.7670°E)
Time: 19:50:38
(UTC+12:00)

Tiros 1 despin weight - Pass Details

Date: 21 July 2019
Orbit: 594 x 642 km, 48.2° (Epoch: 21 August)

Event Time Altitude Azimuth Distance (km) Brightness Sun altitude
Rises 01:57:26 0° 267° (W) 2,845 - -64.6°
Reaches altitude 10° 02:00:02 10° 253° (WSW) 1,948 - -64.1°
Maximum altitude 02:03:46 25° 196° (SSW) 1,227 - -63.5°
Drops below altitude 10° 02:07:32 10° 140° (SE) 1,969 - -62.8°
Sets 02:10:11 0° 126° (SE) 2,883 - -62.4°
